EN

Hourly Weather Luderitz

Today, 29 November, Sunday

Time Temperature Precipitation Wind Pressure Humidity
00:00 +17°C° 0 mm 10 mps 757 mmHg 68%
01:00 +16°C° 0 mm 9 mps 757 mmHg 73%
02:00 +15°C° 0 mm 9 mps 756 mmHg 74%
03:00 +15°C° 0 mm 9 mps 756 mmHg 74%
04:00 +15°C° 0 mm 9 mps 756 mmHg 74%
05:00 +16°C° 0 mm 9 mps 756 mmHg 66%
06:00 +18°C° 0 mm 9 mps 756 mmHg 57%
07:00 +21°C° 0 mm 8 mps 756 mmHg 48%
08:00 +24°C° 0 mm 8 mps 756 mmHg 41%
09:00 +28°C° 0 mm 9 mps 756 mmHg 35%
10:00 +31°C° 0 mm 10 mps 756 mmHg 28%
11:00 +31°C° 0 mm 10 mps 755 mmHg 31%
12:00 +31°C° 0 mm 10 mps 755 mmHg 34%
13:00 +31°C° 0 mm 10 mps 754 mmHg 37%
14:00 +29°C° 0 mm 9 mps 754 mmHg 41%
15:00 +28°C° 0 mm 9 mps 754 mmHg 44%
16:00 +27°C° 0 mm 9 mps 754 mmHg 48%
17:00 +24°C° 0 mm 9 mps 755 mmHg 55%
18:00 +22°C° 0 mm 8 mps 755 mmHg 63%
19:00 +20°C° 0 mm 8 mps 756 mmHg 71%
20:00 +18°C° 0 mm 8 mps 756 mmHg 73%
21:00 +17°C° 0 mm 8 mps 756 mmHg 76%
22:00 +17°C° 0 mm 7 mps 756 mmHg 78%
23:00 +16°C° 0 mm 8 mps 756 mmHg 78%

Tomorrow, 30 November, Monday

Time Temperature Precipitation Wind Pressure Humidity
00:00 +16°C° 0 mm 8 mps 756 mmHg 79%
01:00 +16°C° 0 mm 8 mps 755 mmHg 79%
02:00 +15°C° 0 mm 7 mps 755 mmHg 81%
03:00 +15°C° 0 mm 7 mps 755 mmHg 82%
04:00 +14°C° 0 mm 6 mps 755 mmHg 83%
05:00 +16°C° 0 mm 7 mps 756 mmHg 75%
06:00 +17°C° 0 mm 7 mps 756 mmHg 67%
07:00 +18°C° 0 mm 7 mps 757 mmHg 60%
08:00 +22°C° 0 mm 8 mps 757 mmHg 51%
09:00 +26°C° 0 mm 9 mps 757 mmHg 42%
10:00 +28°C° 0 mm 9 mps 757 mmHg 34%
11:00 +28°C° 0 mm 10 mps 757 mmHg 37%
12:00 +28°C° 0 mm 10 mps 756 mmHg 40%
13:00 +27°C° 0 mm 11 mps 756 mmHg 44%
14:00 +26°C° 0 mm 11 mps 756 mmHg 47%
15:00 +24°C° 0 mm 11 mps 756 mmHg 50%
16:00 +23°C° 0 mm 11 mps 756 mmHg 53%
17:00 +22°C° 0 mm 11 mps 756 mmHg 58%
18:00 +19°C° 0 mm 10 mps 757 mmHg 62%
19:00 +18°C° 0 mm 10 mps 757 mmHg 67%
20:00 +17°C° 0 mm 9 mps 758 mmHg 70%
21:00 +16°C° 0 mm 9 mps 758 mmHg 73%
22:00 +16°C° 0 mm 8 mps 759 mmHg 77%
23:00 +15°C° 0 mm 8 mps 758 mmHg 79%

Day after tomorrow, 1 December, Tuesday

Time Temperature Precipitation Wind Pressure Humidity
00:00 +13°C° 0 mm 8 mps 758 mmHg 81%
01:00 +13°C° 0 mm 8 mps 757 mmHg 83%
02:00 +12°C° 0 mm 8 mps 757 mmHg 81%
03:00 +12°C° 0 mm 8 mps 757 mmHg 80%
04:00 +12°C° 0 mm 8 mps 757 mmHg 79%
05:00 +13°C° 0 mm 9 mps 758 mmHg 70%
06:00 +16°C° 0 mm 9 mps 758 mmHg 62%
07:00 +17°C° 0 mm 9 mps 758 mmHg 53%
08:00 +21°C° 0 mm 10 mps 758 mmHg 44%
09:00 +26°C° 0 mm 11 mps 758 mmHg 34%
10:00 +29°C° 0 mm 11 mps 758 mmHg 25%
11:00 +29°C° 0 mm 12 mps 757 mmHg 27%
12:00 +29°C° 0 mm 13 mps 757 mmHg 29%
13:00 +29°C° 0 mm 14 mps 756 mmHg 31%
14:00 +28°C° 0 mm 14 mps 756 mmHg 34%
15:00 +27°C° 0 mm 14 mps 755 mmHg 37%
16:00 +27°C° 0 mm 14 mps 755 mmHg 41%
17:00 +24°C° 0 mm 14 mps 755 mmHg 45%
18:00 +22°C° 0 mm 13 mps 756 mmHg 48%
19:00 +19°C° 0 mm 13 mps 756 mmHg 52%
20:00 +18°C° 0 mm 12 mps 756 mmHg 57%
21:00 +17°C° 0 mm 12 mps 757 mmHg 61%
22:00 +16°C° 0 mm 11 mps 757 mmHg 66%
23:00 +16°C° 0 mm 11 mps 757 mmHg 68%

2 December, Wednesday

Time Temperature Precipitation Wind Pressure Humidity
00:00 +14°C° 0 mm 11 mps 756 mmHg 70%
01:00 +14°C° 0 mm 11 mps 756 mmHg 72%
02:00 +14°C° 0 mm 10 mps 756 mmHg 72%
03:00 +13°C° 0 mm 10 mps 755 mmHg 72%
04:00 +13°C° 0 mm 9 mps 755 mmHg 73%
05:00 +16°C° 0 mm 8 mps 755 mmHg 64%
06:00 +18°C° 0 mm 8 mps 755 mmHg 55%
07:00 +21°C° 0 mm 7 mps 755 mmHg 47%
08:00 +23°C° 0 mm 8 mps 755 mmHg 40%
09:00 +27°C° 0 mm 8 mps 755 mmHg 33%
10:00 +31°C° 0 mm 9 mps 755 mmHg 27%
11:00 +31°C° 0 mm 9 mps 754 mmHg 30%
12:00 +31°C° 0 mm 10 mps 753 mmHg 33%
13:00 +31°C° 0 mm 10 mps 753 mmHg 36%
14:00 +31°C° 0 mm 10 mps 753 mmHg 38%
15:00 +29°C° 0 mm 10 mps 752 mmHg 40%
16:00 +28°C° 0 mm 10 mps 752 mmHg 42%
17:00 +26°C° 0 mm 9 mps 753 mmHg 49%
18:00 +23°C° 0 mm 9 mps 753 mmHg 56%
19:00 +20°C° 0 mm 8 mps 753 mmHg 63%
20:00 +18°C° 0 mm 7 mps 754 mmHg 68%
21:00 +17°C° 0 mm 6 mps 754 mmHg 73%
22:00 +16°C° 0 mm 5 mps 755 mmHg 78%
23:00 +15°C° 0 mm 5 mps 755 mmHg 81%

3 December, Thursday

Time Temperature Precipitation Wind Pressure Humidity
00:00 +15°C° 0 mm 4 mps 754 mmHg 84%
01:00 +14°C° 0 mm 4 mps 754 mmHg 87%
02:00 +14°C° 0 mm 3 mps 754 mmHg 88%
03:00 +14°C° 0 mm 3 mps 754 mmHg 89%
04:00 +14°C° 0 mm 2 mps 754 mmHg 90%
05:00 +16°C° 0 mm 3 mps 754 mmHg 85%
06:00 +17°C° 0 mm 3 mps 755 mmHg 80%
07:00 +18°C° 0 mm 3 mps 755 mmHg 76%
08:00 +20°C° 0 mm 3 mps 755 mmHg 68%
09:00 +22°C° 0 mm 3 mps 755 mmHg 61%
10:00 +23°C° 0 mm 4 mps 755 mmHg 53%
11:00 +23°C° 0 mm 4 mps 755 mmHg 55%
12:00 +23°C° 0 mm 4 mps 755 mmHg 57%
13:00 +23°C° 0 mm 4 mps 755 mmHg 58%
14:00 +23°C° 0 mm 4 mps 754 mmHg 60%
15:00 +22°C° 0 mm 4 mps 754 mmHg 62%
16:00 +22°C° 0 mm 4 mps 754 mmHg 65%
17:00 +21°C° 0 mm 3 mps 755 mmHg 71%
18:00 +20°C° 0 mm 3 mps 755 mmHg 77%
19:00 +18°C° 0 mm 2 mps 756 mmHg 84%
20:00 +17°C° 0 mm 2 mps 756 mmHg 88%
21:00 +18°C° 0 mm 1 mps 756 mmHg 92%
22:00 +16°C° 0 mm 1 mps 756 mmHg 96%
23:00 +15°C° 0 mm 1 mps 756 mmHg 96%

4 December, Friday

Time Temperature Precipitation Wind Pressure Humidity
00:00 +15°C° 0 mm 1 mps 756 mmHg 96%
01:00 +14°C° 0 mm 1 mps 756 mmHg 97%
02:00 +14°C° 0 mm 1 mps 756 mmHg 97%
03:00 +14°C° 0 mm 1 mps 756 mmHg 97%
04:00 +13°C° 0 mm 0 mps 756 mmHg 97%
05:00 +15°C° 0 mm 1 mps 756 mmHg 92%
06:00 +18°C° 0 mm 1 mps 756 mmHg 86%
07:00 +18°C° 0 mm 2 mps 756 mmHg 81%
08:00 +19°C° 0 mm 2 mps 757 mmHg 75%
09:00 +21°C° 0 mm 3 mps 757 mmHg 69%
10:00 +22°C° 0 mm 3 mps 757 mmHg 64%
11:00 +22°C° 0 mm 3 mps 757 mmHg 61%
12:00 +23°C° 0 mm 4 mps 756 mmHg 58%
13:00 +23°C° 0 mm 4 mps 756 mmHg 55%
14:00 +23°C° 0 mm 4 mps 756 mmHg 54%
15:00 +24°C° 0 mm 3 mps 756 mmHg 53%
16:00 +22°C° 0 mm 3 mps 756 mmHg 52%
17:00 +21°C° 0 mm 3 mps 756 mmHg 61%
18:00 +19°C° 0 mm 3 mps 756 mmHg 70%
19:00 +17°C° 0 mm 2 mps 757 mmHg 79%
20:00 +17°C° 0 mm 2 mps 757 mmHg 84%
21:00 +16°C° 0 mm 2 mps 757 mmHg 88%
22:00 +15°C° 0 mm 2 mps 757 mmHg 93%
23:00 +15°C° 0 mm 1 mps 757 mmHg 93%
Show more